COSMOS 2251 DEB, 47073

Orbit data source: Space-Track

COSMOS 2251 DEB, 47073 is space debris in LEO originally from a launch on Wed, 16 Jun 1993 UTC launched from the Plesetsk Missile And Space Complex (PKMTR). The debris from Iridium 33, an American commercial communications satellite, has been tracked extensively since its accidental collision with the defunct Russian satellite Cosmos 2251 in 2009. This event, occurring at high speed in low Earth orbit (LEO), generated thousands of pieces of space debris, significantly increasing the risk of further collisions. The Iridium 33 debris cloud has impacted space traffic management and orbital debris mitigation strategies, making it a subject of ongoing study in space situational awareness.

Loading next visibility...
Identifier
47073, 1993-036BYD
Orbit
LEO
Country
Flag of CISCIS
Related business
Manufacturer
Unknown
Mission
Spacecraft
Bus & Motor
Unknown
Mass
Unknown
Launch date (UTC)
1993-06-16 (33 years ago)
Launch vehicle
Unknown
Launch site
Plesetsk Missile And Space Complex (PKMTR)
Object type
Payload
Rocket body
Debris
Shape & HBR
Unknown shape, 0.1 m
Radar Cross Section
Small (<0.1 m²)

Expand to show TLE details & history
Last TLE update: 1 week ago

TLE from 1 week ago
0 COSMOS 2251 DEB
1 47073U 93036BYD 26087.12827492  .00001545  00000-0  87030-3 0  9996
2 47073  74.0876  18.4645 0158986  30.8562 330.1799 14.04968471618410
Epoch: 2026-03-28T03:04Z
TLE epoch observation values (Epoch: 2026-03-28T03:04:42.953Z)
Latitude
0.00001°
Longitude
146.73257°
Altitude
779.595 km
Speed
7.515 km/s
True Right ascension
01h 13m 51s
True Declination
0° 00' 00"
Sunlit
Object was in daylight at epoch
Visualization orbit readout
Latitude
Unknown
Longitude
Unknown
Altitude
Unknown
Speed
Unknown
Apparent Right ascension
Unknown
Apparent Declination
Unknown
Sunlit
N/A
Visualization observer readout
Local Sidereal Time
17:02:14
Azimuth
Unknown
Elevation
Unknown
Doppler factor
Unknown
Orbital elements
Apogee altitude
989.598 km
Perigee altitude
758.991 km
Semi-major axis
7,252.431 km
Eccentricity
0.0159
Inclination
74.0876°
RAAN
18.4645°
Arg. of periapsis
30.8562°
True anomaly
329.25809°
Mean anomaly
330.1799°
Eccentric anomaly
329.7206°
Mean motion
3.51413 °/min
Orbital period
102.44 mins
BSTAR
0.0008703

Documentation

Showing up to 5 results
|